Weather History for Pian Rosa, Italy

Change the Weather History Date:

Wednesday, March 6, 2013

  Actual Average Record
Temperature  
Mean Temperature 18 °F -  
Max Temperature 21 °F 19 °F 24 °F (1998)
Min Temperature 14 °F 8 °F -13 °F (2005)
Degree Days  
Heating Degree Days 48    
Moisture  
Dew Point 15 °F    
Average Humidity 86    
Maximum Humidity 100    
Minimum Humidity 70    
Precipitation  
Precipitation 0.00 in - - ()
Sea Level Pressure  
Sea Level Pressure 29.70 in    
Wind  
Wind Speed 17 mph ()    
Max Wind Speed 30 mph    
Max Gust Speed -    
Visibility 0.1 miles    
Events Fog , Snow    
Averages and records for this station are not official NWS values.
T = Trace of Precipitation, MM = Missing Value Source: Averaged Metar Reports

Daily Weather History Graph

Daily Weather History Graph

Search for Another Location

Airport:

Trip Planner

Search our weather history database for the weather conditions in past years. The results will help you decide how hot, cold, wet, or windy it might be!

Date:

Astronomy

Mar. 06, 2013 Rise Set
Actual Time 6:58 AM CET 6:22 PM CET
Civil Twilight 6:29 AM CET 6:52 PM CET
Nautical Twilight 5:54 AM CET 7:27 PM CET
Astronomical Twilight 5:19 AM CET 8:02 PM CET
Moon 3:07 AM CET (3/6) 12:33 PM CET (3/6)
Length of Visible Light 12h 23m
Length of Day
11h 23m
Waning Crescent, 33% of the Moon is Illuminated
Mar 6
Waning Crescent
Mar 11
New
Mar 19
First Quarter
Mar 27
Full
Apr 3
Last Quarter

Hourly Weather History & Observations

Time (CET) Temp. Windchill Dew Point Humidity Pressure Visibility Wind Dir Wind Speed Gust Speed Precip Events Conditions
12:55 AM 15.8 °F -0.6 °F 15.8 °F 100% 29.83 in 0.1 mi SE 18.4 mph - N/A Fog , Snow Light Snow
1:00 AM 16 °F - 16 °F 100%  in 0 mi SE 18.4 mph - - Snow Light Snow
1:55 AM 17.6 °F 4.3 °F 17.6 °F 100% 29.80 in 0.1 mi SE 12.7 mph - N/A Fog , Snow Light Snow
2:55 AM 15.8 °F 4.2 °F 14.0 °F 93% 29.80 in 0.1 mi SSE 9.2 mph - N/A Fog , Snow Light Snow
3:55 AM 15.8 °F 2.1 °F 15.8 °F 100% 29.77 in 0.1 mi South 12.7 mph - N/A Fog , Snow Light Snow
4:00 AM 16 °F - 15 °F 93%  in 0 mi South 12.7 mph - - Snow Light Snow
4:55 AM 15.8 °F 0.3 °F 14.0 °F 93% 29.74 in 0.1 mi SSE 16.1 mph - N/A Fog , Snow Light Snow
5:55 AM 17.6 °F 1.7 °F 14.0 °F 86% 29.74 in 0.1 mi SE 18.4 mph - N/A Fog , Snow Light Snow
6:55 AM 19.4 °F 0.5 °F 17.6 °F 93% 29.71 in 0.1 mi ESE 29.9 mph - N/A Fog Light Freezing Fog
7:00 AM 19 °F - 18 °F 92%  in 0 mi ESE 29.9 mph - - Fog Heavy Fog
8:55 AM 19.4 °F 1.8 °F 17.6 °F 93% 29.71 in 0.2 mi ESE 25.3 mph - N/A Fog Light Freezing Fog
9:55 AM 19.4 °F 0.8 °F 15.8 °F 86% 29.71 in 0.1 mi ESE 28.8 mph - N/A Fog Light Freezing Fog
10:00 AM 20 °F - 16 °F 78%  in 0 mi ESE 28.8 mph - - Fog Heavy Fog
10:55 AM 21.2 °F 4.2 °F 15.8 °F 80% 29.71 in 0.3 mi ESE 25.3 mph - N/A Fog Light Freezing Fog
11:55 AM 21.2 °F 4.9 °F 15.8 °F 80% 29.71 in 0.5 mi ESE 23.0 mph - N/A Fog Light Freezing Fog
12:55 PM 19.4 °F 3.6 °F 14.0 °F 80% 29.71 in 0.4 mi ESE 19.6 mph - N/A Fog Light Freezing Fog
1:00 PM 20 °F - 14 °F 70%  in 0 mi ESE 19.6 mph - - Fog Heavy Fog
1:55 PM 19.4 °F 5.0 °F 14.0 °F 80% 29.68 in 0.2 mi SE 16.1 mph - N/A Fog Light Freezing Fog
2:55 PM 19.4 °F 9.5 °F 12.2 °F 74% 29.65 in 0.1 mi South 8.1 mph - N/A Fog , Snow Light Snow
3:55 PM 19.4 °F 5.5 °F 14.0 °F 80% 29.65 in 0.1 mi SE 15.0 mph - N/A Fog , Snow Light Snow
4:00 PM 19 °F - 14 °F 71%  in 0 mi SE 15.0 mph - - Snow Light Snow
4:55 PM 19.4 °F 4.1 °F 14.0 °F 80% 29.65 in 0.1 mi SE 18.4 mph - N/A Fog Light Freezing Fog
5:55 PM 19.4 °F 2.1 °F 12.2 °F 74% 29.65 in 0.1 mi SE 24.2 mph - N/A Fog Light Freezing Fog
6:55 PM 17.6 °F 0.1 °F 14.0 °F 86% 29.65 in 0.1 mi SE 23.0 mph - N/A Fog Light Freezing Fog
7:00 PM 18 °F - 14 °F 76%  in 0 mi SE 23.0 mph - - Fog Heavy Fog
7:55 PM 17.6 °F 2.7 °F 15.8 °F 93% 29.65 in 0.1 mi SSE 16.1 mph - N/A Fog Light Freezing Fog
8:55 PM 19.4 °F 4.1 °F 15.8 °F 86% 29.65 in 0.1 mi SSE 18.4 mph - N/A Fog Light Freezing Fog
9:55 PM 19.4 °F 7.2 °F 15.8 °F 86% 29.65 in 0.2 mi SSE 11.5 mph - N/A Fog Light Freezing Fog
10:00 PM 19 °F - 16 °F 84%  in 0 mi SSE 11.5 mph - - Fog Heavy Fog
10:55 PM 19.4 °F 4.1 °F 15.8 °F 86% 29.65 in 0.2 mi SE 18.4 mph - N/A Fog Light Freezing Fog
11:55 PM 19.4 °F 5.0 °F 15.8 °F 86% 29.65 in 0.2 mi SE 16.1 mph - N/A Fog Light Freezing Fog